N9GKE-1 Weather Reports


time (UTC)temp
F
wind
direction
speed
knots
gust
knots
rain 1hr
in
rain 24hr
in
rain mn
in
humidity
%
barometer
mb
20260906091343 67 30 0.0 7.8 0.00 0.00 0.00 92 1015.1
20260906090343 68 30 0.0 7.8 0.00 0.00 0.00 92 1015.1
20260906085343 68 29 0.9 7.8 0.00 0.00 0.00 92 1014.9
20260906085243 68 50 0.9 7.8 0.00 0.00 0.00 92 1015.0
20260906084344 68 28 0.9 7.8 0.00 0.00 0.00 92 1015.0
20260906084243 68 35 0.9 7.8 0.00 0.00 0.00 92 1014.9
20260906083343 68 75 0.9 7.8 0.00 0.00 0.00 92 1014.9
20260906082344 68 46 0.9 7.8 0.00 0.00 0.00 92 1015.0
20260906082243 68 46 0.0 7.8 0.00 0.00 0.00 92 1015.0
20260906081344 68 44 0.9 7.8 0.00 0.00 0.00 92 1015.0
20260906080344 69 52 0.9 7.8 0.00 0.00 0.00 92 1014.9
20260906075343 69 61 0.9 7.8 0.00 0.00 0.00 92 1014.8
20260906074344 69 64 1.7 7.8 0.00 0.00 0.00 91 1014.8
20260906073344 69 34 0.9 7.8 0.00 0.00 0.00 91 1014.7
20260906073242 69 47 0.9 7.8 0.00 0.00 0.00 91 1014.6
20260906072343 69 47 0.9 7.8 0.00 0.00 0.00 91 1014.6
20260906071343 70 61 1.7 7.8 0.00 0.00 0.00 92 1014.6
20260906071244 70 48 1.7 7.8 0.00 0.00 0.00 92 1014.6
20260906070344 70 62 1.7 7.8 0.00 0.00 0.00 92 1014.7
20260906065343 70 41 0.9 7.8 0.00 0.00 0.00 92 1014.7
20260906064344 70 57 0.9 7.8 0.00 0.00 0.00 92 1014.6
20260906063343 70 57 0.9 7.8 0.00 0.00 0.00 92 1014.6
20260906062343 71 46 0.9 7.8 0.00 0.00 0.00 92 1014.5
20260906061344 71 36 0.9 7.8 0.00 0.00 0.00 91 1014.5
20260906060344 71 47 1.7 7.8 0.00 0.00 0.00 91 1014.4
20260906055344 71 89 1.7 7.8 0.00 0.00 0.00 91 1014.4
20260906054343 71 50 0.9 7.8 0.00 0.00 0.00 91 1014.2
20260906054244 71 94 0.9 7.8 0.00 0.00 0.00 91 1014.2
20260906053344 71 69 1.7 7.8 0.00 0.00 0.00 91 1014.1
20260906053244 71 19 1.7 7.8 0.00 0.00 0.00 92 1014.2
20260906052344 71 78 0.9 7.8 0.00 0.00 0.00 92 1014.1
20260906051343 71 38 0.0 4.3 0.00 0.00 0.00 93 1014.1
20260906050342 71 64 0.9 3.5 0.00 0.00 0.00 92 1014.0
20260906045343 72 42 0.9 3.5 0.00 0.00 0.00 92 1013.9
20260906044343 72 34 0.0 3.5 0.00 0.00 0.00 91 1013.9
20260906043344 72 34 0.0 3.5 0.00 0.00 0.00 91 1013.8
20260906043244 72 34 0.0 3.5 0.00 0.00 0.00 91 1013.8
20260906042343 73 34 0.0 3.5 0.00 0.00 0.00 91 1013.7
20260906041343 73 55 0.9 3.5 0.00 0.00 0.00 91 1013.8
20260906041244 73 63 0.9 3.5 0.00 0.00 0.00 91 1013.8
20260906040342 73 45 0.9 1.7 0.00 0.00 0.00 91 1013.8
20260906040246 73 64 0.9 1.7 0.00 0.00 0.00 91 1013.8
20260906035343 73 64 0.9 12.2 0.00 0.00 0.00 90 1013.8
20260906034343 73 53 0.9 12.2 0.00 0.00 0.00 90 1013.9
20260906034244 73 48 0.9 12.2 0.00 0.00 0.00 90 1013.9
20260906033344 73 63 1.7 12.2 0.00 0.00 0.00 90 1013.9
20260906032343 73 54 1.7 12.2 0.00 0.00 0.00 90 1013.9
20260906032243 73 38 0.9 12.2 0.00 0.00 0.00 90 1013.8
20260906031342 73 39 1.7 12.2 0.00 0.00 0.00 89 1013.6
20260906031244 73 47 2.6 12.2 0.00 0.00 0.00 89 1013.6
20260906030343 73 24 1.7 12.2 0.00 0.00 0.00 89 1013.6
20260906025342 73 48 1.7 12.2 0.00 0.00 0.00 88 1013.7
20260906024344 73 24 1.7 12.2 0.00 0.00 0.00 88 1013.5
20260906024242 73 58 1.7 12.2 0.00 0.00 0.00 88 1013.5
20260906023343 73 50 1.7 12.2 0.00 0.00 0.00 88 1013.4
20260906022343 73 52 2.6 12.2 0.00 0.00 0.00 87 1013.3
20260906022243 73 47 2.6 12.2 0.00 0.00 0.00 87 1013.3
20260906021342 74 59 1.7 12.2 0.00 0.00 0.00 86 1013.3
20260906020344 74 28 0.9 12.2 0.00 0.00 0.00 86 1013.0
20260906020243 74 40 1.7 12.2 0.00 0.00 0.00 86 1013.0
20260906015343 75 23 1.7 12.2 0.00 0.00 0.00 85 1013.1
20260906015242 75 52 2.6 12.2 0.00 0.00 0.00 85 1013.1
20260906014342 75 15 1.7 12.2 0.00 0.00 0.00 84 1013.0
20260906013344 76 22 2.6 12.2 0.00 0.00 0.00 84 1012.7
20260906013245 76 13 1.7 12.2 0.00 0.00 0.00 84 1012.7
20260906012344 76 21 1.7 12.2 0.00 0.00 0.00 83 1012.8
20260906012245 76 37 0.9 12.2 0.00 0.00 0.00 83 1012.8
20260906011345 77 57 2.6 12.2 0.00 0.00 0.00 82 1012.5
20260906011245 77 51 2.6 12.2 0.00 0.00 0.00 82 1012.5
20260906010344 77 38 1.7 12.2 0.00 0.00 0.00 82 1012.3
20260906010245 77 0 1.7 12.2 0.00 0.00 0.00 82 1012.3
20260906005343 78 55 0.9 12.2 0.00 0.00 0.00 81 1012.1
20260906005245 78 48 0.9 12.2 0.00 0.00 0.00 81 1012.1
20260906004344 78 15 1.7 12.2 0.00 0.00 0.00 81 1012.1
20260906004245 78 6 0.9 12.2 0.00 0.00 0.00 81 1012.0
20260906003345 79 343 1.7 12.2 0.00 0.00 0.00 79 1011.9
20260906003244 79 337 1.7 12.2 0.00 0.00 0.00 79 1011.9
20260906002344 80 23 0.9 12.2 0.00 0.00 0.00 78 1011.8
20260906002244 80 18 0.9 12.2 0.00 0.00 0.00 78 1011.8
20260906001344 80 23 1.7 12.2 0.00 0.00 0.00 77 1012.0
20260906001245 80 355 1.7 12.2 0.00 0.00 0.00 77 1012.0
20260906000343 81 28 1.7 12.2 0.00 0.00 0.00 76 1011.8
20260906000039 82 47 2.6 12.2 0.00 0.00 0.00 76 1011.7
20260905235344 82 11 4.3 12.2 0.00 0.00 0.00 75 1011.6
20260905234344 83 32 0.0 12.2 0.00 0.00 0.00 75 1011.6
20260905234244 83 358 0.9 12.2 0.00 0.00 0.00 75 1011.5
20260905233344 83 40 0.9 12.2 0.00 0.00 0.00 75 1011.5
20260905233243 83 45 1.7 12.2 0.00 0.00 0.00 75 1011.4
20260905232344 84 27 0.9 12.2 0.00 0.00 0.00 74 1011.4
20260905232245 84 14 0.9 12.2 0.00 0.00 0.00 73 1011.4
20260905231344 84 17 0.9 12.2 0.00 0.00 0.00 72 1011.4
20260905231243 84 27 0.9 12.2 0.00 0.00 0.00 72 1011.4
20260905230344 85 345 0.9 12.2 0.00 0.00 0.00 72 1011.3
20260905230245 85 34 0.9 12.2 0.00 0.00 0.00 72 1011.4
20260905225344 85 339 1.7 12.2 0.00 0.00 0.00 71 1011.1
20260905225245 85 35 2.6 12.2 0.00 0.00 0.00 71 1011.1
20260905224345 86 45 0.9 12.2 0.00 0.00 0.00 71 1011.1
20260905224244 86 92 1.7 12.2 0.00 0.00 0.00 71 1011.1
20260905223345 86 35 2.6 12.2 0.00 0.00 0.00 70 1011.0
20260905223244 86 33 4.3 12.2 0.00 0.00 0.00 70 1010.9
20260905222344 87 357 0.9 12.2 0.00 0.00 0.00 71 1010.8
20260905222245 87 346 1.7 12.2 0.00 0.00 0.00 71 1010.8
20260905221344 87 24 1.7 12.2 0.00 0.00 0.00 71 1010.6
20260905221244 87 0 2.6 12.2 0.00 0.00 0.00 71 1010.7
20260905220345 87 37 2.6 12.2 0.00 0.00 0.00 71 1010.7
20260905220244 88 39 2.6 12.2 0.00 0.00 0.00 71 1010.5
20260905215344 88 61 2.6 12.2 0.00 0.00 0.00 71 1010.6
20260905215244 88 30 1.7 12.2 0.00 0.00 0.00 72 1010.6
20260905214345 88 2 4.3 12.2 0.00 0.00 0.00 71 1010.6
20260905214244 89 28 2.6 12.2 0.00 0.00 0.00 71 1010.5
20260905213343 89 321 1.7 12.2 0.00 0.00 0.00 71 1010.3
20260905212345 89 17 1.7 12.2 0.00 0.00 0.00 71 1010.2
20260905212244 89 69 0.9 12.2 0.00 0.00 0.00 70 1010.2
20260905211346 90 30 1.7 12.2 0.00 0.00 0.00 71 1010.1
20260905211245 90 345 1.7 12.2 0.00 0.00 0.00 72 1010.1
20260905210344 90 18 0.9 12.2 0.00 0.00 0.00 72 1010.1
20260905210245 90 293 0.9 12.2 0.00 0.00 0.00 71 1010.1
20260905205345 91 343 1.7 12.2 0.00 0.00 0.00 72 1010.1
20260905205244 91 13 2.6 12.2 0.00 0.00 0.00 71 1010.2
20260905204343 90 32 0.9 12.2 0.00 0.00 0.00 71 1010.3
20260905204244 90 338 1.7 12.2 0.00 0.00 0.00 71 1010.3
20260905203343 90 316 0.9 12.2 0.00 0.00 0.00 69 1010.2
20260905203244 91 295 1.7 12.2 0.00 0.00 0.00 69 1010.2
20260905202344 91 343 0.9 12.2 0.00 0.00 0.00 68 1010.2
20260905202243 91 327 1.7 12.2 0.00 0.00 0.00 67 1010.2
20260905201344 91 318 1.7 12.2 0.00 0.00 0.00 68 1010.2
20260905201245 91 1 2.6 12.2 0.00 0.00 0.00 68 1010.3
20260905200344 90 54 1.7 12.2 0.00 0.00 0.00 70 1010.3
20260905200243 90 356 1.7 12.2 0.00 0.00 0.00 72 1010.3
20260905195345 89 34 0.9 12.2 0.00 0.00 0.00 72 1010.3
20260905195244 89 34 0.9 12.2 0.00 0.00 0.00 71 1010.3
20260905194345 88 15 0.9 12.2 0.00 0.00 0.00 70 1010.5
20260905194245 88 352 1.7 12.2 0.00 0.00 0.00 70 1010.5
20260905193345 90 53 4.3 12.2 0.00 0.00 0.00 68 1010.9
20260905193244 90 53 2.6 12.2 0.00 0.00 0.00 68 1010.9
20260905192343 91 302 1.7 12.2 0.00 0.00 0.00 70 1011.1
20260905192244 91 3 0.9 12.2 0.00 0.00 0.00 70 1011.1
20260905191345 91 333 0.9 12.2 0.00 0.00 0.00 67 1011.1
20260905191245 91 344 0.9 12.2 0.00 0.00 0.00 67 1011.1
20260905190344 92 276 1.7 12.2 0.00 0.00 0.00 66 1010.8
20260905190245 92 310 2.6 12.2 0.00 0.00 0.00 66 1010.9
20260905185344 93 353 2.6 12.2 0.00 0.00 0.00 64 1011.1
20260905185244 93 318 4.3 12.2 0.00 0.00 0.00 64 1011.2
20260905184345 92 46 0.9 12.2 0.00 0.00 0.00 68 1011.1
20260905184244 92 352 0.9 12.2 0.00 0.00 0.00 67 1011.2
20260905183344 91 192 0.9 12.2 0.00 0.00 0.00 67 1011.2
20260905183244 91 222 0.9 12.2 0.00 0.00 0.00 66 1011.3
20260905182343 91 329 1.7 12.2 0.00 0.00 0.00 67 1011.6
20260905182244 91 342 0.9 12.2 0.00 0.00 0.00 68 1011.6
20260905181344 90 176 0.9 12.2 0.00 0.00 0.00 68 1011.6
20260905181245 90 29 0.0 12.2 0.00 0.00 0.00 69 1011.7
20260905180343 90 206 0.9 12.2 0.00 0.00 0.00 70 1011.7
20260905180243 90 217 0.9 12.2 0.00 0.00 0.00 69 1011.8
20260905175344 90 312 0.9 12.2 0.00 0.00 0.00 68 1011.9
20260905175245 90 325 1.7 12.2 0.00 0.00 0.00 67 1012.0
20260905174343 90 331 0.9 12.2 0.00 0.00 0.00 67 1012.1
20260905173345 89 236 0.9 12.2 0.00 0.00 0.00 69 1012.2
20260905173243 89 245 0.9 12.2 0.00 0.00 0.00 68 1012.2
20260905172343 89 274 0.9 12.2 0.00 0.00 0.00 69 1012.3
20260905172244 89 320 0.0 12.2 0.00 0.00 0.00 68 1012.3
20260905171345 88 253 0.0 12.2 0.00 0.00 0.00 68 1012.5
20260905171244 88 231 0.9 12.2 0.00 0.00 0.00 69 1012.6
20260905170345 88 136 2.6 12.2 0.00 0.00 0.00 67 1012.5
20260905165344 88 199 0.9 12.2 0.00 0.00 0.00 69 1012.7
20260905165243 88 218 0.9 12.2 0.00 0.00 0.00 68 1012.7
20260905164343 87 205 0.9 12.2 0.00 0.00 0.00 68 1012.7
20260905164243 87 180 1.7 12.2 0.00 0.00 0.00 67 1012.8
20260905163345 87 187 0.9 12.2 0.00 0.00 0.00 68 1012.7
20260905163245 87 173 0.9 12.2 0.00 0.00 0.00 68 1012.7
20260905162344 87 165 0.9 12.2 0.00 0.00 0.00 70 1012.7
20260905161344 86 114 0.0 12.2 0.00 0.00 0.00 71 1012.7
20260905161244 86 150 0.9 12.2 0.00 0.00 0.00 70 1012.7
20260905160345 85 200 0.9 12.2 0.00 0.00 0.00 72 1012.7
20260905155346 85 176 0.9 12.2 0.00 0.00 0.00 72 1012.7
20260905155245 85 175 0.9 12.2 0.00 0.00 0.00 73 1012.8
20260905154345 84 183 1.7 12.2 0.00 0.00 0.00 73 1012.7
20260905154244 83 205 0.9 12.2 0.00 0.00 0.00 73 1012.8
20260905153344 83 182 1.7 12.2 0.00 0.00 0.00 74 1012.8
20260905153244 83 174 1.7 12.2 0.00 0.00 0.00 73 1012.8
20260905152344 82 215 0.9 12.2 0.00 0.00 0.00 75 1012.8
20260905152244 82 225 0.9 12.2 0.00 0.00 0.00 76 1012.8
20260905151343 81 173 1.7 12.2 0.00 0.00 0.00 77 1012.7
20260905150344 80 221 2.6 12.2 0.00 0.00 0.00 77 1012.6
20260905150244 80 197 2.6 12.2 0.00 0.00 0.00 77 1012.6
20260905145343 80 167 1.7 11.3 0.00 0.00 0.00 79 1012.8
20260905145243 80 177 1.7 11.3 0.00 0.00 0.00 79 1012.9
20260905144345 79 168 0.9 11.3 0.00 0.00 0.00 81 1013.0
20260905143345 79 174 1.7 11.3 0.00 0.00 0.00 82 1012.9
20260905142344 79 168 0.9 11.3 0.00 0.00 0.00 82 1012.8
20260905142243 79 173 0.9 11.3 0.00 0.00 0.00 82 1012.8
20260905141344 79 175 1.7 11.3 0.00 0.00 0.00 83 1012.6
20260905140343 78 192 0.9 11.3 0.00 0.00 0.00 81 1012.7
20260905140244 78 196 1.7 11.3 0.00 0.00 0.00 80 1012.6
20260905135346 78 204 0.9 11.3 0.00 0.00 0.00 81 1012.5
20260905135244 78 184 1.7 11.3 0.00 0.00 0.00 81 1012.5
20260905134344 78 170 4.3 11.3 0.00 0.00 0.00 81 1012.4
20260905134244 78 193 2.6 11.3 0.00 0.00 0.00 82 1012.4
20260905133344 78 183 4.3 11.3 0.00 0.00 0.00 83 1012.4
20260905133243 78 182 4.3 11.3 0.00 0.00 0.00 84 1012.5
20260905132345 77 154 2.6 11.3 0.00 0.00 0.00 83 1012.7
20260905132244 78 157 1.7 11.3 0.00 0.00 0.00 83 1012.7
20260905131344 78 143 1.7 11.3 0.00 0.00 0.00 81 1012.7
20260905131244 78 175 2.6 11.3 0.00 0.00 0.00 81 1012.7
20260905130343 78 170 0.9 11.3 0.00 0.00 0.00 82 1012.7
20260905130244 78 183 1.7 11.3 0.00 0.00 0.00 82 1012.7
20260905125343 77 177 1.7 11.3 0.00 0.00 0.00 83 1012.7
20260905124344 77 186 1.7 11.3 0.00 0.00 0.00 87 1012.7
20260905124244 77 185 4.3 11.3 0.00 0.00 0.00 87 1012.6
20260905123344 77 161 4.3 11.3 0.00 0.00 0.00 89 1012.6
20260905122343 77 155 1.7 7.0 0.00 0.00 0.00 91 1012.5
20260905121344 76 102 0.9 6.1 0.00 0.00 0.00 94 1012.3
20260905120344 76 103 1.7 6.1 0.00 0.00 0.00 94 1012.1
20260905120245 76 112 0.9 6.1 0.00 0.00 0.00 94 1012.1
20260905115343 76 241 0.9 1.7 0.00 0.00 0.00 94 1012.0
20260905114343 75 241 0.9 0.9 0.00 0.00 0.00 94 1011.9
20260905113344 76 241 0.0 0.9 0.00 0.00 0.00 94 1011.9
20260905113243 76 241 0.0 0.9 0.00 0.00 0.00 94 1011.9
20260905112343 76 241 0.0 0.9 0.00 0.00 0.00 94 1011.7
20260905112244 76 241 0.0 0.9 0.00 0.00 0.00 94 1011.7
20260905111343 76 241 0.0 0.9 0.00 0.00 0.00 94 1011.6
20260905111244 76 241 0.0 0.9 0.00 0.00 0.00 94 1011.5
20260905110344 76 241 0.0 0.9 0.00 0.00 0.00 94 1011.4
20260905110243 76 241 0.0 0.9 0.00 0.00 0.00 94 1011.4
20260905105343 76 241 0.0 0.9 0.00 0.00 0.00 94 1011.3
20260905104343 76 241 0.0 0.9 0.00 0.00 0.00 94 1011.4
20260905104243 76 241 0.0 0.9 0.00 0.00 0.00 94 1011.4
20260905103343 76 241 0.0 0.9 0.00 0.00 0.00 94 1011.4
20260905102343 76 241 0.0 0.9 0.00 0.00 0.00 94 1011.3
20260905102244 76 241 0.0 0.9 0.00 0.00 0.00 94 1011.4
20260905101343 76 241 0.0 0.9 0.00 0.00 0.00 94 1011.3
20260905101244 76 241 0.0 0.9 0.00 0.00 0.00 94 1011.3
20260905100344 76 241 0.0 0.9 0.00 0.00 0.00 93 1011.5
20260905095343 76 241 0.0 0.9 0.00 0.00 0.00 93 1011.6
20260905094343 76 241 0.0 0.9 0.00 0.00 0.00 93 1011.6
20260905093344 76 241 0.0 0.9 0.00 0.00 0.00 92 1011.7
20260905092344 76 241 0.0 0.9 0.00 0.00 0.00 92 1011.6